Вернуться в каталог

METEOR 2-7 DEB

АктивенPO
NORAD 38288·DEBRIS·🇷🇺 Russia

Запущен May 14, 1981 с Plesetsk Cosmodrome

Loading…

Ближайшие Пролёты (ближайшие 24 часа)

TLE

УстаревающийSource: Space-Track

Эпоха: Sep 5, 2026, 08:51 UTC

1 38288U 81043W   26248.36942139  .00003058  00000-0  83630-3 0  9993
2 38288  81.2510 269.1230 0032029 318.6570  41.2196 14.46759919512542

Отслеживайте METEOR 2-7 DEB в реальном времени с AllMySat

Download on the App Store